Regional Weather Roundup
Issued by NWS

Home | Current Version | Previous Version | Text Only | Print | Product List | Glossary Off
Versions: 1 2 3 4 5 6 7 8 9 10 11 12 13 14 15 16 17 18 19 20 21 22 23 24 25 26 27 28 29 30 31 32 33 34 35 36 37 38 39 40 41 42 43 44 45 46 47 48 49 50

000
ASUS43 KFSD 210102
RWRSD

WEATHER ROUNDUP FOR SOUTH DAKOTA
NATIONAL WEATHER SERVICE SIOUX FALLS SD
700 PM CST FRI JAN 20 2017

NOTE: "FAIR" INDICATES FEW OR NO CLOUDS BELOW 12,000 FEET WITH NO
SIGNIFICANT WEATHER AND/OR OBSTRUCTIONS TO VISIBILITY.


SDZ001>005-009-010-012>017-210200-
NORTHWEST AND NORTH CENTRAL SOUTH DAKOTA

CITY           SKY/WX    TMP DP  RH WIND       PRES   REMARKS
BUFFALO          N/A     36  31  82 NW20      29.27S
FAITH            N/A     20  20 100 N7        29.32R WCI  11
MOBRIDGE       CLOUDY    31  27  85 N5        29.29S FOG     WCI  26
$$

SDZ012>016-024>037-041>051-057-063-072>074-210200-
SOUTHWEST AND SOUTH CENTRAL SOUTH DAKOTA

CITY           SKY/WX    TMP DP  RH WIND       PRES   REMARKS
RAPID CTY ARPT PTCLDY    36  27  69 NW8       29.33R
PIERRE         CLOUDY    19  16  88 W6        29.34R FOG     WCI  11
CUSTER         FLURRIES  34  27  75 SW5       29.33R WCI  30
ELLSWORTH AFB  CLOUDY    36  32  87 N9        29.32R
PHILIP         PTCLDY    27  25  92 N6        29.33R WCI  20
PINE RIDGE     CLOUDY    36  33  89 SW8       29.36S
SPEARFISH      CLOUDY    36  32  87 NW10      29.36S
WINNER         FAIR      34  28  79 SW5       29.34S WCI  30
$$

SDZ004>011-016>023-039-040-210200-
NORTHEAST SOUTH DAKOTA

CITY           SKY/WX    TMP DP  RH WIND       PRES   REMARKS
ABERDEEN       CLOUDY    33  30  88 SE5       29.37S WCI  29
WATERTOWN      FOG       36  36 100 SE13      29.40R VSB 1/2
BROOKINGS      FOG       36  36 100 S12       29.42R VSB 1/2
SISSETON         N/A     35  35 100 S10       29.42R WCI  27
$$

SDZ017-020-022-023-036>040-048>070-210200-
SOUTHEAST SOUTH DAKOTA

CITY           SKY/WX    TMP DP  RH WIND       PRES   REMARKS
SIOUX FALLS    DRZL/FOG  39  39 100 SE12      29.45R VSB 1
HURON          CLOUDY    38  37  97 S6        29.35S
CHAMBERLAIN    CLEAR     32  29  90 CALM      29.35S
MITCHELL       CLEAR     40  38  93 S16       29.38S
YANKTON        CLOUDY    39  37  93 SE9       29.41S
$$

ABBREVIATIONS USED IN REMARKS
   TC - TEMPERATURE IN CELSIUS
  WCI - WIND CHILL INDEX
   HX - HEAT INDEX
  VSB - VISIBILITY




USA.gov is the U.S. government's official web portal to all federal, state and local government web resources and services.